| time (UTC) | temp F | wind direction | speed MPH | gust MPH | rain 1hr in | rain 24hr in | rain mn in | humidity % | barometer mb |
| 20260903034137 | 79 | 224 | 0.0 | 0.0 | 0.00 | 0.00 | 0.00 | 73 | 1013.4 |
| 20260903033636 | 79 | 322 | 0.0 | 1.0 | 0.00 | 0.00 | 0.00 | 73 | 1013.2 |
| 20260903033137 | 80 | 293 | 0.0 | 1.0 | 0.00 | 0.00 | 0.00 | 73 | 1013.7 |
| 20260903032635 | 80 | 326 | 0.0 | 1.0 | 0.00 | 0.00 | 0.00 | 72 | 1013.5 |
| 20260903032405 | 80 | 37 | 0.0 | 2.0 | 0.00 | 0.00 | 0.00 | 72 | 1013.8 |
| 20260903031634 | 80 | 212 | 0.0 | 2.0 | 0.00 | 0.00 | 0.00 | 72 | 1013.9 |
| 20260903031136 | 80 | 325 | 0.0 | 1.0 | 0.00 | 0.00 | 0.00 | 72 | 1013.1 |
| 20260903030633 | 80 | 343 | 0.0 | 0.0 | 0.00 | 0.00 | 0.00 | 71 | 1013.6 |
| 20260903030134 | 80 | 315 | 0.0 | 1.0 | 0.00 | 0.00 | 0.00 | 71 | 1013.4 |
| 20260903025857 | 80 | 306 | 0.0 | 1.0 | 0.00 | 0.00 | 0.00 | 71 | 1013.4 |
| 20260903025143 | 80 | 309 | 0.0 | 1.0 | 0.00 | 0.00 | 0.00 | 71 | 1013.2 |
| 20260903024634 | 80 | 269 | 0.0 | 1.0 | 0.00 | 0.00 | 0.00 | 70 | 1013.1 |
| 20260903024133 | 81 | 283 | 0.0 | 2.0 | 0.00 | 0.00 | 0.00 | 70 | 1013.2 |
| 20260903023848 | 81 | 290 | 0.0 | 2.0 | 0.00 | 0.00 | 0.00 | 70 | 1013.6 |
| 20260903023132 | 81 | 299 | 2.0 | 2.0 | 0.00 | 0.00 | 0.00 | 70 | 1013.6 |
| 20260903022859 | 81 | 306 | 0.0 | 1.0 | 0.00 | 0.00 | 0.00 | 70 | 1013.7 |
| 20260903022131 | 81 | 322 | 0.0 | 1.0 | 0.00 | 0.00 | 0.00 | 70 | 1013.8 |
| 20260903021630 | 81 | 75 | 0.0 | 1.0 | 0.00 | 0.00 | 0.00 | 70 | 1014.1 |
| 20260903021133 | 81 | 269 | 0.0 | 1.0 | 0.00 | 0.00 | 0.00 | 69 | 1013.9 |
| 20260903020629 | 81 | 284 | 0.0 | 1.0 | 0.00 | 0.00 | 0.00 | 70 | 1013.8 |
| 20260903020130 | 82 | 309 | 0.0 | 1.0 | 0.00 | 0.00 | 0.00 | 69 | 1014.3 |
| 20260903015629 | 82 | 255 | 0.0 | 0.0 | 0.00 | 0.00 | 0.00 | 69 | 1014.0 |
| 20260903015130 | 82 | 315 | 0.0 | 0.0 | 0.00 | 0.00 | 0.00 | 69 | 1013.8 |
| 20260903014628 | 82 | 269 | 0.0 | 1.0 | 0.00 | 0.00 | 0.00 | 69 | 1014.0 |
| 20260903014139 | 82 | 315 | 0.0 | 1.0 | 0.00 | 0.00 | 0.00 | 69 | 1013.9 |
| 20260903013627 | 82 | 255 | 0.0 | 2.0 | 0.00 | 0.00 | 0.00 | 68 | 1014.0 |
| 20260903013127 | 82 | 154 | 0.0 | 2.0 | 0.00 | 0.00 | 0.00 | 68 | 1013.9 |
| 20260903012626 | 83 | 224 | 0.0 | 1.0 | 0.00 | 0.00 | 0.00 | 68 | 1013.6 |
| 20260903012128 | 83 | 326 | 0.0 | 1.0 | 0.00 | 0.00 | 0.00 | 67 | 1013.8 |
| 20260903011625 | 83 | 304 | 0.0 | 1.0 | 0.00 | 0.00 | 0.00 | 67 | 1013.9 |
| 20260903011352 | 83 | 217 | 0.0 | 1.0 | 0.00 | 0.00 | 0.00 | 67 | 1013.6 |
| 20260903010847 | 83 | 255 | 0.0 | 2.0 | 0.00 | 0.00 | 0.00 | 67 | 1013.4 |
| 20260903010126 | 83 | 269 | 0.0 | 2.0 | 0.00 | 0.00 | 0.00 | 66 | 1013.5 |
| 20260903005620 | 84 | 230 | 0.0 | 2.0 | 0.00 | 0.00 | 0.00 | 66 | 1013.5 |
| 20260903005124 | 84 | 311 | 0.0 | 2.0 | 0.00 | 0.00 | 0.00 | 66 | 1013.4 |
| 20260903004622 | 84 | 297 | 0.0 | 2.0 | 0.00 | 0.00 | 0.00 | 66 | 1013.2 |
| 20260903004353 | 84 | 269 | 0.0 | 1.0 | 0.00 | 0.00 | 0.00 | 65 | 1013.2 |
| 20260903003618 | 85 | 230 | 0.0 | 1.0 | 0.00 | 0.00 | 0.00 | 65 | 1013.0 |
| 20260903003127 | 85 | 315 | 0.0 | 1.0 | 0.00 | 0.00 | 0.00 | 65 | 1012.9 |
| 20260903002617 | 85 | 343 | 0.0 | 2.0 | 0.00 | 0.00 | 0.00 | 64 | 1013.2 |
| 20260903002337 | 85 | 309 | 0.0 | 2.0 | 0.00 | 0.00 | 0.00 | 64 | 1013.1 |
| 20260903001617 | 85 | 266 | 1.0 | 2.0 | 0.00 | 0.00 | 0.00 | 63 | 1013.4 |
| 20260903001123 | 86 | 299 | 0.0 | 2.0 | 0.00 | 0.00 | 0.00 | 63 | 1013.2 |
| 20260903000619 | 86 | 290 | 0.0 | 2.0 | 0.00 | 0.00 | 0.00 | 62 | 1013.1 |
| 20260903000119 | 86 | 269 | 0.0 | 2.0 | 0.00 | 0.00 | 0.00 | 61 | 1013.5 |
| 20260902235620 | 87 | 262 | 0.0 | 2.0 | 0.00 | 0.00 | 0.00 | 61 | 1013.4 |
| 20260902235120 | 87 | 242 | 0.0 | 2.0 | 0.00 | 0.00 | 0.00 | 60 | 1013.6 |
| 20260902234615 | 87 | 216 | 0.0 | 2.0 | 0.00 | 0.00 | 0.00 | 60 | 1013.2 |
| 20260902234118 | 87 | 193 | 0.0 | 2.0 | 0.00 | 0.00 | 0.00 | 59 | 1013.5 |
| 20260902233614 | 88 | 278 | 2.0 | 2.0 | 0.00 | 0.00 | 0.00 | 58 | 1013.4 |
| 20260902233114 | 88 | 315 | 0.0 | 2.0 | 0.00 | 0.00 | 0.00 | 58 | 1013.4 |
| 20260902232620 | 88 | 315 | 0.0 | 2.0 | 0.00 | 0.00 | 0.00 | 57 | 1013.4 |
| 20260902232112 | 88 | 269 | 0.0 | 2.0 | 0.00 | 0.00 | 0.00 | 57 | 1013.4 |
| 20260902231607 | 89 | 202 | 0.0 | 2.0 | 0.00 | 0.00 | 0.00 | 56 | 1013.6 |
| 20260902231110 | 89 | 301 | 0.0 | 3.0 | 0.00 | 0.00 | 0.00 | 56 | 1013.5 |
| 20260902231052 | 89 | 297 | 0.0 | 3.0 | 0.00 | 0.00 | 0.00 | 55 | 1013.6 |
| 20260902230110 | 89 | 304 | 0.0 | 2.0 | 0.00 | 0.00 | 0.00 | 55 | 1013.5 |
| 20260902225605 | 89 | 283 | 0.0 | 3.0 | 0.00 | 0.00 | 0.00 | 54 | 1013.4 |
| 20260902225330 | 90 | 58 | 0.0 | 3.0 | 0.00 | 0.00 | 0.00 | 54 | 1013.6 |
| 20260902224612 | 90 | 325 | 0.0 | 4.0 | 0.00 | 0.00 | 0.00 | 53 | 1013.2 |
| 20260902224104 | 90 | 227 | 2.0 | 4.0 | 0.00 | 0.00 | 0.00 | 53 | 1013.4 |
| 20260902223602 | 90 | 135 | 0.0 | 3.0 | 0.00 | 0.00 | 0.00 | 52 | 1013.2 |
| 20260902223103 | 90 | 276 | 2.0 | 3.0 | 0.00 | 0.00 | 0.00 | 52 | 1013.2 |
| 20260902222559 | 91 | 219 | 1.0 | 3.0 | 0.00 | 0.00 | 0.00 | 52 | 1013.4 |
| 20260902222323 | 91 | 269 | 0.0 | 4.0 | 0.00 | 0.00 | 0.00 | 50 | 1013.6 |
| 20260902221830 | 91 | 62 | 0.0 | 4.0 | 0.00 | 0.00 | 0.00 | 49 | 1013.1 |
| 20260902221105 | 91 | 274 | 1.0 | 3.0 | 0.00 | 0.00 | 0.00 | 48 | 1013.4 |
| 20260902220557 | 91 | 237 | 0.0 | 3.0 | 0.00 | 0.00 | 0.00 | 48 | 1013.4 |
| 20260902220111 | 91 | 315 | 0.0 | 3.0 | 0.00 | 0.00 | 0.00 | 48 | 1013.4 |
| 20260902215603 | 92 | 306 | 1.0 | 3.0 | 0.00 | 0.00 | 0.00 | 47 | 1013.2 |
| 20260902215555 | 92 | 257 | 1.0 | 3.0 | 0.00 | 0.00 | 0.00 | 47 | 1013.5 |
| 20260902214549 | 92 | 171 | 0.0 | 3.0 | 0.00 | 0.00 | 0.00 | 46 | 1013.7 |
| 20260902214058 | 92 | 6 | 0.0 | 3.0 | 0.00 | 0.00 | 0.00 | 44 | 1013.7 |
| 20260902213553 | 92 | 229 | 0.0 | 4.0 | 0.00 | 0.00 | 0.00 | 41 | 1013.7 |
| 20260902213053 | 92 | 276 | 1.0 | 4.0 | 0.00 | 0.00 | 0.00 | 41 | 1013.4 |
| 20260902212551 | 92 | 314 | 4.0 | 4.0 | 0.00 | 0.00 | 0.00 | 40 | 1013.4 |
| 20260902212318 | 92 | 290 | 0.0 | 3.0 | 0.00 | 0.00 | 0.00 | 41 | 1013.5 |
| 20260902211549 | 93 | 255 | 0.0 | 3.0 | 0.00 | 0.00 | 0.00 | 42 | 1013.7 |
| 20260902211055 | 93 | 292 | 2.0 | 3.0 | 0.00 | 0.00 | 0.00 | 39 | 1013.8 |
| 20260902211036 | 93 | 297 | 2.0 | 2.0 | 0.00 | 0.00 | 0.00 | 40 | 1013.7 |
| 20260902210049 | 93 | 266 | 0.0 | 2.0 | 0.00 | 0.00 | 0.00 | 41 | 1013.6 |
| 20260902205546 | 93 | 330 | 1.0 | 2.0 | 0.00 | 0.00 | 0.00 | 41 | 1014.0 |
| 20260902205048 | 93 | 269 | 2.0 | 2.0 | 0.00 | 0.00 | 0.00 | 39 | 1013.8 |
| 20260902204538 | 93 | 341 | 0.0 | 2.0 | 0.00 | 0.00 | 0.00 | 41 | 1014.0 |
| 20260902204032 | 92 | 260 | 2.0 | 4.0 | 0.00 | 0.00 | 0.00 | 40 | 1014.0 |
| 20260902203531 | 92 | 249 | 0.0 | 4.0 | 0.00 | 0.00 | 0.00 | 42 | 1014.2 |
| 20260902203029 | 93 | 297 | 0.0 | 3.0 | 0.00 | 0.00 | 0.00 | 38 | 1014.0 |
| 20260902203019 | 93 | 220 | 0.0 | 3.0 | 0.00 | 0.00 | 0.00 | 39 | 1014.2 |
| 20260902202034 | 93 | 249 | 0.0 | 3.0 | 0.00 | 0.00 | 0.00 | 39 | 1014.0 |
| 20260902202012 | 93 | 296 | 1.0 | 4.0 | 0.00 | 0.00 | 0.00 | 40 | 1014.2 |
| 20260902201018 | 94 | 259 | 1.0 | 4.0 | 0.00 | 0.00 | 0.00 | 39 | 1014.3 |
| 20260902200512 | 94 | 269 | 0.0 | 3.0 | 0.00 | 0.00 | 0.00 | 39 | 1014.4 |
| 20260902200011 | 94 | 313 | 2.0 | 4.0 | 0.00 | 0.00 | 0.00 | 38 | 1014.5 |
| 20260902195505 | 94 | 314 | 2.0 | 4.0 | 0.00 | 0.00 | 0.00 | 39 | 1014.2 |
| 20260902195013 | 95 | 248 | 2.0 | 4.0 | 0.00 | 0.00 | 0.00 | 36 | 1014.6 |
| 20260902194513 | 94 | 172 | 2.0 | 3.0 | 0.00 | 0.00 | 0.00 | 38 | 1014.5 |
| 20260902194020 | 94 | 283 | 1.0 | 0.0 | 0.00 | 0.00 | 0.00 | 41 | 1014.6 |
| 20260902193317 | 92 | 335 | 1.0 | 5.0 | 0.00 | 0.00 | 0.00 | 44 | 1014.4 |
| 20260902193046 | 92 | 127 | 0.0 | 2.0 | 0.00 | 0.00 | 0.00 | 45 | 1014.5 |
| 20260902192550 | 91 | 186 | 0.0 | 2.0 | 0.00 | 0.00 | 0.00 | 46 | 1014.7 |
| 20260902191818 | 91 | 135 | 0.0 | 2.0 | 0.00 | 0.00 | 0.00 | 48 | 1014.6 |
| 20260902191319 | 91 | 255 | 0.0 | 2.0 | 0.00 | 0.00 | 0.00 | 48 | 1014.9 |
| 20260902190818 | 91 | 316 | 1.0 | 2.0 | 0.00 | 0.00 | 0.00 | 47 | 1014.8 |
| 20260902190319 | 91 | 268 | 2.0 | 2.0 | 0.00 | 0.00 | 0.00 | 46 | 1014.9 |
| 20260902185816 | 91 | 322 | 0.0 | 2.0 | 0.00 | 0.00 | 0.00 | 47 | 1015.0 |
| 20260902185321 | 92 | 269 | 0.0 | 3.0 | 0.00 | 0.00 | 0.00 | 46 | 1014.6 |
| 20260902184819 | 92 | 275 | 2.0 | 3.0 | 0.00 | 0.00 | 0.00 | 44 | 1014.9 |
| 20260902184317 | 93 | 321 | 1.0 | 3.0 | 0.00 | 0.00 | 0.00 | 44 | 1014.8 |
| 20260902184023 | 94 | 249 | 2.0 | 4.0 | 0.00 | 0.00 | 0.00 | 43 | 1015.0 |
| 20260902183253 | 94 | 275 | 2.0 | 4.0 | 0.00 | 0.00 | 0.00 | 44 | 1015.1 |
| 20260902182742 | 94 | 323 | 0.0 | 3.0 | 0.00 | 0.00 | 0.00 | 45 | 1015.1 |
| 20260902182245 | 93 | 275 | 1.0 | 3.0 | 0.00 | 0.00 | 0.00 | 44 | 1015.1 |
| 20260902181742 | 93 | 306 | 2.0 | 3.0 | 0.00 | 0.00 | 0.00 | 42 | 1015.0 |
| 20260902181243 | 93 | 25 | 3.0 | 3.0 | 0.00 | 0.00 | 0.00 | 45 | 1015.4 |
| 20260902181003 | 93 | 235 | 0.0 | 3.0 | 0.00 | 0.00 | 0.00 | 46 | 1015.6 |
| 20260902180243 | 92 | 205 | 0.0 | 3.0 | 0.00 | 0.00 | 0.00 | 43 | 1015.3 |
| 20260902175702 | 92 | 246 | 1.0 | 5.0 | 0.00 | 0.00 | 0.00 | 44 | 1015.7 |
| 20260902174923 | 93 | 144 | 2.0 | 4.0 | 0.00 | 0.00 | 0.00 | 44 | 1015.5 |
| 20260902174406 | 93 | 224 | 0.0 | 4.0 | 0.00 | 0.00 | 0.00 | 46 | 1015.4 |
| 20260902174126 | 93 | 237 | 2.0 | 3.0 | 0.00 | 0.00 | 0.00 | 47 | 1015.5 |
| 20260902173404 | 93 | 354 | 0.0 | 3.0 | 0.00 | 0.00 | 0.00 | 46 | 1015.6 |
| 20260902173138 | 92 | 327 | 1.0 | 3.0 | 0.00 | 0.00 | 0.00 | 46 | 1015.7 |
| 20260902172628 | 93 | 223 | 0.0 | 2.0 | 0.00 | 0.00 | 0.00 | 50 | 1015.6 |
| 20260902171900 | 92 | 269 | 0.0 | 2.0 | 0.00 | 0.00 | 0.00 | 51 | 1015.7 |
| 20260902171210 | 92 | 278 | 2.0 | 3.0 | 0.00 | 0.00 | 0.00 | 50 | 1015.6 |
| 20260902170717 | 93 | 98 | 1.0 | 4.0 | 0.00 | 0.00 | 0.00 | 50 | 1015.7 |
| 20260902170420 | 92 | 5 | 1.0 | 4.0 | 0.00 | 0.00 | 0.00 | 48 | 1015.8 |
| 20260902165704 | 93 | 245 | 0.0 | 4.0 | 0.00 | 0.00 | 0.00 | 49 | 1015.7 |
| 20260902165157 | 93 | 275 | 2.0 | 3.0 | 0.00 | 0.00 | 0.00 | 48 | 1015.6 |
| 20260902164658 | 92 | 315 | 2.0 | 2.0 | 0.00 | 0.00 | 0.00 | 49 | 1016.0 |
| 20260902164154 | 93 | 306 | 1.0 | 3.0 | 0.00 | 0.00 | 0.00 | 48 | 1015.7 |
| 20260902163708 | 92 | 228 | 0.0 | 3.0 | 0.00 | 0.00 | 0.00 | 51 | 1015.9 |
| 20260902163134 | 92 | 347 | 0.0 | 3.0 | 0.00 | 0.00 | 0.00 | 49 | 1016.1 |
| 20260902162646 | 92 | 272 | 2.0 | 2.0 | 0.00 | 0.00 | 0.00 | 48 | 1016.1 |
| 20260902162141 | 92 | 266 | 1.0 | 2.0 | 0.00 | 0.00 | 0.00 | 49 | 1016.1 |
| 20260902161637 | 92 | 258 | 1.0 | 2.0 | 0.00 | 0.00 | 0.00 | 51 | 1016.2 |
| 20260902161126 | 91 | 237 | 0.0 | 3.0 | 0.00 | 0.00 | 0.00 | 49 | 1016.0 |
| 20260902160624 | 90 | 321 | 0.0 | 3.0 | 0.00 | 0.00 | 0.00 | 52 | 1016.3 |
| 20260902160110 | 90 | 303 | 1.0 | 3.0 | 0.00 | 0.00 | 0.00 | 53 | 1015.9 |
| 20260902155845 | 89 | 259 | 1.0 | 3.0 | 0.00 | 0.00 | 0.00 | 53 | 1016.1 |
| 20260902155120 | 89 | 194 | 0.0 | 2.0 | 0.00 | 0.00 | 0.00 | 57 | 1016.2 |
| 20260902154612 | 88 | 335 | 0.0 | 2.0 | 0.00 | 0.00 | 0.00 | 55 | 1016.3 |
| 20260902154111 | 88 | 288 | 1.0 | 2.0 | 0.00 | 0.00 | 0.00 | 57 | 1016.4 |
| 20260902153610 | 87 | 275 | 1.0 | 0.0 | 0.00 | 0.00 | 0.00 | 59 | 1016.2 |
| 20260902153025 | 87 | 296 | 2.0 | 2.0 | 0.00 | 0.00 | 0.00 | 59 | 1016.3 |
| 20260902152524 | 86 | 333 | 0.0 | 2.0 | 0.00 | 0.00 | 0.00 | 60 | 1016.1 |
| 20260902152023 | 85 | 272 | 2.0 | 2.0 | 0.00 | 0.00 | 0.00 | 61 | 1016.1 |
| 20260902151518 | 85 | 74 | 1.0 | 3.0 | 0.00 | 0.00 | 0.00 | 64 | 1016.2 |
| 20260902151255 | 84 | 177 | 0.0 | 3.0 | 0.00 | 0.00 | 0.00 | 62 | 1016.3 |
| 20260902150731 | 84 | 273 | 0.0 | 3.0 | 0.00 | 0.00 | 0.00 | 63 | 1016.1 |
| 20260902150016 | 84 | 332 | 0.0 | 2.0 | 0.00 | 0.00 | 0.00 | 67 | 1016.2 |
| 20260902145505 | 83 | 291 | 0.0 | 2.0 | 0.00 | 0.00 | 0.00 | 66 | 1016.0 |
| 20260902144958 | 83 | 306 | 0.0 | 1.0 | 0.00 | 0.00 | 0.00 | 68 | 1016.0 |
| 20260902144455 | 82 | 224 | 0.0 | 3.0 | 0.00 | 0.00 | 0.00 | 69 | 1016.0 |
| 20260902143953 | 82 | 210 | 0.0 | 3.0 | 0.00 | 0.00 | 0.00 | 69 | 1015.9 |
| 20260902143452 | 81 | 214 | 2.0 | 3.0 | 0.00 | 0.00 | 0.00 | 69 | 1015.8 |
| 20260902142945 | 81 | 297 | 0.0 | 2.0 | 0.00 | 0.00 | 0.00 | 71 | 1016.1 |
| 20260902142444 | 80 | 309 | 0.0 | 2.0 | 0.00 | 0.00 | 0.00 | 71 | 1015.9 |
| 20260902141935 | 80 | 315 | 0.0 | 2.0 | 0.00 | 0.00 | 0.00 | 73 | 1016.0 |
| 20260902141434 | 80 | 320 | 1.0 | 2.0 | 0.00 | 0.00 | 0.00 | 74 | 1016.1 |
| 20260902140938 | 79 | 99 | 0.0 | 0.0 | 0.00 | 0.00 | 0.00 | 74 | 1016.0 |
| 20260902140431 | 79 | 297 | 0.0 | 2.0 | 0.00 | 0.00 | 0.00 | 75 | 1015.7 |
| 20260902135931 | 78 | 297 | 0.0 | 2.0 | 0.00 | 0.00 | 0.00 | 75 | 1015.7 |
| 20260902135644 | 78 | 13 | 0.0 | 2.0 | 0.00 | 0.00 | 0.00 | 75 | 1016.0 |
| 20260902135022 | 78 | 330 | 2.0 | 2.0 | 0.00 | 0.00 | 0.00 | 77 | 1015.7 |
| 20260902134210 | 77 | 325 | 0.0 | 2.0 | 0.00 | 0.00 | 0.00 | 79 | 1015.7 |
| 20260902133418 | 76 | 224 | 0.0 | 2.0 | 0.00 | 0.00 | 0.00 | 83 | 1015.9 |
| 20260902132912 | 76 | 129 | 0.0 | 2.0 | 0.00 | 0.00 | 0.00 | 84 | 1015.9 |
| 20260902132656 | 75 | 137 | 1.0 | 2.0 | 0.00 | 0.00 | 0.00 | 85 | 1016.0 |
| 20260902131906 | 75 | 337 | 0.0 | 2.0 | 0.00 | 0.00 | 0.00 | 85 | 1016.0 |
| 20260902131403 | 75 | 293 | 0.0 | 1.0 | 0.00 | 0.00 | 0.00 | 86 | 1015.9 |
| 20260902125838 | 74 | 110 | 0.0 | 2.0 | 0.00 | 0.00 | 0.00 | 86 | 1015.7 |
| 20260902125327 | 74 | 10 | 0.0 | 1.0 | 0.00 | 0.00 | 0.00 | 86 | 1016.0 |
| 20260902124836 | 74 | 295 | 0.0 | 2.0 | 0.00 | 0.00 | 0.00 | 86 | 1015.9 |
| 20260902124333 | 74 | 15 | 0.0 | 2.0 | 0.00 | 0.00 | 0.00 | 86 | 1015.8 |
| 20260902123822 | 74 | 322 | 0.0 | 1.0 | 0.00 | 0.00 | 0.00 | 86 | 1015.9 |
| 20260902123316 | 73 | 319 | 1.0 | 1.0 | 0.00 | 0.00 | 0.00 | 86 | 1015.8 |
| 20260902122806 | 73 | 309 | 0.0 | 1.0 | 0.00 | 0.00 | 0.00 | 86 | 1015.9 |
| 20260902122258 | 73 | 62 | 0.0 | 1.0 | 0.00 | 0.00 | 0.00 | 86 | 1015.7 |
| 20260902121745 | 73 | 44 | 0.0 | 1.0 | 0.00 | 0.00 | 0.00 | 86 | 1015.8 |
| 20260902121249 | 73 | 297 | 0.0 | 1.0 | 0.00 | 0.00 | 0.00 | 85 | 1015.7 |
| 20260902120745 | 73 | 297 | 0.0 | 0.0 | 0.00 | 0.00 | 0.00 | 86 | 1015.9 |
| 20260902120517 | 73 | 315 | 0.0 | 0.0 | 0.00 | 0.00 | 0.00 | 85 | 1015.9 |
| 20260902115744 | 73 | 129 | 0.0 | 0.0 | 0.00 | 0.00 | 0.00 | 85 | 1015.9 |
| 20260902115254 | 72 | 129 | 0.0 | 0.0 | 0.00 | 0.00 | 0.00 | 85 | 1015.9 |
| 20260902114745 | 72 | 129 | 0.0 | 0.0 | 0.00 | 0.00 | 0.00 | 85 | 1015.7 |
| 20260902114246 | 72 | 73 | 0.0 | 1.0 | 0.00 | 0.00 | 0.00 | 85 | 1015.7 |
| 20260902113745 | 72 | 73 | 0.0 | 1.0 | 0.00 | 0.00 | 0.00 | 85 | 1015.9 |
| 20260902113247 | 72 | 135 | 0.0 | 0.0 | 0.00 | 0.00 | 0.00 | 85 | 1015.5 |
| 20260902112743 | 72 | 135 | 0.0 | 0.0 | 0.00 | 0.00 | 0.00 | 85 | 1015.9 |
| 20260902112243 | 72 | 135 | 0.0 | 0.0 | 0.00 | 0.00 | 0.00 | 85 | 1015.8 |
| 20260902111604 | 72 | 135 | 0.0 | 0.0 | 0.00 | 0.03 | 0.00 | 85 | 1016.1 |
| 20260902111113 | 72 | 135 | 0.0 | 0.0 | 0.00 | 0.03 | 0.00 | 85 | 1015.9 |
| 20260902110614 | 72 | 135 | 0.0 | 0.0 | 0.00 | 0.03 | 0.00 | 85 | 1015.9 |
| 20260902110121 | 73 | 135 | 0.0 | 0.0 | 0.00 | 0.03 | 0.00 | 85 | 1015.8 |
| 20260902105606 | 73 | 135 | 0.0 | 0.0 | 0.00 | 0.03 | 0.00 | 85 | 1016.0 |
| 20260902105108 | 73 | 135 | 0.0 | 0.0 | 0.00 | 0.03 | 0.00 | 85 | 1015.8 |
| 20260902104605 | 73 | 304 | 0.0 | 0.0 | 0.00 | 0.03 | 0.00 | 85 | 1015.9 |
| 20260902104118 | 73 | 304 | 0.0 | 0.0 | 0.00 | 0.03 | 0.00 | 85 | 1015.8 |
| 20260902103605 | 73 | 304 | 0.0 | 0.0 | 0.00 | 0.03 | 0.00 | 85 | 1015.8 |
| 20260902103327 | 73 | 304 | 0.0 | 0.0 | 0.00 | 0.03 | 0.00 | 85 | 1015.9 |
| 20260902102603 | 73 | 304 | 0.0 | 1.0 | 0.00 | 0.03 | 0.00 | 85 | 1015.8 |
| 20260902102105 | 73 | 309 | 0.0 | 1.0 | 0.00 | 0.03 | 0.00 | 85 | 1015.7 |
| 20260902101603 | 73 | 229 | 0.0 | 0.0 | 0.00 | 0.03 | 0.00 | 85 | 1015.8 |
| 20260902101548 | 73 | 315 | 0.0 | 0.0 | 0.00 | 0.03 | 0.00 | 85 | 1015.9 |
| 20260902100830 | 73 | 322 | 0.0 | 0.0 | 0.00 | 0.03 | 0.00 | 85 | 1015.7 |
| 20260902100109 | 73 | 322 | 0.0 | 0.0 | 0.00 | 0.03 | 0.00 | 85 | 1015.9 |
| 20260902095602 | 73 | 322 | 0.0 | 0.0 | 0.00 | 0.03 | 0.00 | 85 | 1015.9 |
| 20260902095103 | 74 | 37 | 0.0 | 0.0 | 0.00 | 0.03 | 0.00 | 85 | 1015.9 |
| 20260902094601 | 74 | 37 | 0.0 | 0.0 | 0.00 | 0.03 | 0.00 | 85 | 1015.8 |
| 20260902094102 | 74 | 44 | 0.0 | 0.0 | 0.00 | 0.03 | 0.00 | 85 | 1015.8 |
| 20260902093559 | 74 | 22 | 0.0 | 1.0 | 0.00 | 0.03 | 0.00 | 85 | 1015.8 |
| 20260902093103 | 74 | 37 | 0.0 | 1.0 | 0.00 | 0.03 | 0.00 | 85 | 1015.8 |
| 20260902092559 | 74 | 315 | 0.0 | 0.0 | 0.00 | 0.03 | 0.00 | 85 | 1015.7 |
| 20260902092101 | 74 | 309 | 0.0 | 1.0 | 0.00 | 0.03 | 0.00 | 85 | 1015.4 |
| 20260902091559 | 74 | 224 | 0.0 | 1.0 | 0.00 | 0.03 | 0.00 | 85 | 1015.6 |
| 20260902091100 | 74 | 326 | 0.0 | 0.0 | 0.00 | 0.03 | 0.00 | 85 | 1015.6 |
| 20260902090558 | 74 | 44 | 0.0 | 0.0 | 0.00 | 0.03 | 0.00 | 85 | 1015.2 |
| 20260902090121 | 74 | 44 | 0.0 | 0.0 | 0.00 | 0.03 | 0.00 | 85 | 1015.4 |
| 20260902085558 | 74 | 44 | 0.0 | 0.0 | 0.00 | 0.03 | 0.00 | 85 | 1015.2 |
| 20260902085100 | 74 | 44 | 0.0 | 0.0 | 0.00 | 0.03 | 0.00 | 85 | 1015.0 |
| 20260902084557 | 74 | 44 | 0.0 | 0.0 | 0.00 | 0.03 | 0.00 | 85 | 1015.4 |
| 20260902084331 | 74 | 44 | 0.0 | 0.0 | 0.00 | 0.03 | 0.00 | 85 | 1015.2 |
| 20260902083556 | 74 | 44 | 0.0 | 0.0 | 0.00 | 0.03 | 0.00 | 85 | 1015.4 |
| 20260902083109 | 74 | 44 | 0.0 | 0.0 | 0.00 | 0.03 | 0.00 | 85 | 1015.2 |
| 20260902082558 | 74 | 44 | 0.0 | 0.0 | 0.00 | 0.03 | 0.00 | 85 | 1015.3 |
| 20260902082323 | 74 | 315 | 0.0 | 0.0 | 0.00 | 0.03 | 0.00 | 85 | 1015.3 |
| 20260902081556 | 74 | 44 | 0.0 | 1.0 | 0.00 | 0.03 | 0.00 | 85 | 1015.1 |
| 20260902081056 | 74 | 50 | 0.0 | 1.0 | 0.00 | 0.03 | 0.00 | 85 | 1015.1 |
| 20260902080558 | 74 | 315 | 0.0 | 1.0 | 0.00 | 0.03 | 0.00 | 85 | 1015.0 |
| 20260902080329 | 74 | 309 | 0.0 | 1.0 | 0.00 | 0.03 | 0.00 | 85 | 1015.4 |
| 20260902075558 | 74 | 44 | 0.0 | 1.0 | 0.00 | 0.03 | 0.00 | 84 | 1015.0 |
| 20260902075056 | 74 | 44 | 0.0 | 0.0 | 0.00 | 0.03 | 0.00 | 84 | 1015.7 |
| 20260902074554 | 74 | 315 | 0.0 | 0.0 | 0.00 | 0.03 | 0.00 | 84 | 1015.1 |
| 20260902074055 | 73 | 129 | 0.0 | 0.0 | 0.00 | 0.03 | 0.00 | 84 | 1015.3 |
| 20260902073554 | 73 | 44 | 0.0 | 0.0 | 0.00 | 0.03 | 0.00 | 84 | 1015.2 |
| 20260902073103 | 73 | 309 | 0.0 | 0.0 | 0.00 | 0.03 | 0.00 | 84 | 1015.0 |
| 20260902072553 | 72 | 44 | 0.0 | 0.0 | 0.00 | 0.03 | 0.00 | 83 | 1015.0 |
| 20260902072054 | 72 | 44 | 0.0 | 0.0 | 0.00 | 0.03 | 0.00 | 83 | 1015.6 |
| 20260902071552 | 72 | 44 | 0.0 | 0.0 | 0.00 | 0.03 | 0.00 | 83 | 1015.2 |
| 20260902071053 | 72 | 44 | 0.0 | 0.0 | 0.00 | 0.03 | 0.00 | 83 | 1015.1 |
| 20260902070551 | 72 | 44 | 0.0 | 0.0 | 0.00 | 0.03 | 0.00 | 83 | 1015.3 |
| 20260902070333 | 72 | 44 | 0.0 | 0.0 | 0.00 | 0.03 | 0.00 | 83 | 1015.0 |
| 20260902065551 | 72 | 44 | 0.0 | 0.0 | 0.00 | 0.03 | 0.00 | 83 | 1014.9 |
| 20260902065051 | 72 | 44 | 0.0 | 0.0 | 0.00 | 0.03 | 0.00 | 83 | 1015.0 |
| 20260902064817 | 72 | 44 | 0.0 | 0.0 | 0.00 | 0.03 | 0.00 | 83 | 1014.8 |
| 20260902064052 | 72 | 44 | 0.0 | 0.0 | 0.00 | 0.03 | 0.00 | 83 | 1015.3 |
| 20260902063815 | 72 | 44 | 0.0 | 0.0 | 0.00 | 0.03 | 0.00 | 82 | 1015.1 |
| 20260902063315 | 73 | 44 | 0.0 | 0.0 | 0.00 | 0.03 | 0.00 | 82 | 1015.0 |
| 20260902062821 | 73 | 44 | 0.0 | 0.0 | 0.00 | 0.03 | 0.00 | 82 | 1015.1 |
| 20260902062050 | 73 | 44 | 0.0 | 0.0 | 0.00 | 0.03 | 0.00 | 82 | 1015.2 |
| 20260902061809 | 73 | 44 | 0.0 | 0.0 | 0.00 | 0.03 | 0.00 | 82 | 1015.1 |
| 20260902061050 | 73 | 44 | 0.0 | 0.0 | 0.00 | 0.03 | 0.00 | 82 | 1015.5 |
| 20260902060548 | 73 | 44 | 0.0 | 0.0 | 0.00 | 0.03 | 0.00 | 82 | 1015.3 |
| 20260902055553 | 73 | 44 | 0.0 | 0.0 | 0.00 | 0.03 | 0.00 | 82 | 1015.4 |
| 20260902055049 | 73 | 44 | 0.0 | 0.0 | 0.00 | 0.03 | 0.00 | 82 | 1015.4 |
| 20260902054546 | 73 | 44 | 0.0 | 0.0 | 0.00 | 0.03 | 0.00 | 82 | 1015.4 |
| 20260902054048 | 73 | 44 | 0.0 | 0.0 | 0.00 | 0.03 | 0.00 | 82 | 1015.6 |
| 20260902053546 | 73 | 44 | 0.0 | 0.0 | 0.00 | 0.03 | 0.00 | 82 | 1015.6 |
| 20260902053047 | 73 | 315 | 0.0 | 0.0 | 0.00 | 0.03 | 0.00 | 82 | 1015.5 |
| 20260902052804 | 73 | 315 | 0.0 | 0.0 | 0.00 | 0.03 | 0.00 | 82 | 1015.4 |
| 20260902052055 | 73 | 315 | 0.0 | 0.0 | 0.00 | 0.03 | 0.00 | 81 | 1015.3 |
| 20260902051544 | 73 | 315 | 0.0 | 0.0 | 0.00 | 0.03 | 0.00 | 81 | 1015.5 |
| 20260902051537 | 73 | 315 | 0.0 | 0.0 | 0.00 | 0.03 | 0.00 | 81 | 1015.3 |
| 20260902050545 | 73 | 44 | 0.0 | 0.0 | 0.00 | 0.03 | 0.00 | 81 | 1015.6 |
| 20260902050045 | 73 | 44 | 0.0 | 0.0 | 0.00 | 0.03 | 0.00 | 81 | 1015.4 |
| 20260902045809 | 73 | 44 | 0.0 | 0.0 | 0.00 | 0.03 | 0.00 | 81 | 1015.4 |
| 20260902045054 | 73 | 44 | 0.0 | 0.0 | 0.00 | 0.03 | 0.00 | 81 | 1015.5 |
| 20260902044544 | 73 | 44 | 0.0 | 0.0 | 0.00 | 0.03 | 0.00 | 81 | 1015.3 |
| 20260902044045 | 73 | 44 | 0.0 | 0.0 | 0.00 | 0.03 | 0.00 | 81 | 1015.4 |
| 20260902043802 | 73 | 44 | 0.0 | 0.0 | 0.00 | 0.03 | 0.00 | 81 | 1015.4 |
| 20260902043044 | 73 | 44 | 0.0 | 0.0 | 0.00 | 0.03 | 0.00 | 80 | 1015.6 |
| 20260902042542 | 72 | 44 | 0.0 | 0.0 | 0.00 | 0.03 | 0.00 | 80 | 1015.6 |
| 20260902042100 | 73 | 44 | 0.0 | 0.0 | 0.00 | 0.03 | 0.00 | 80 | 1015.5 |
| 20260902042043 | 73 | 44 | 0.0 | 0.0 | 0.00 | 0.03 | 0.00 | 80 | 1015.3 |
| 20260902041045 | 72 | 44 | 0.0 | 0.0 | 0.00 | 0.03 | 0.00 | 80 | 1015.6 |
| 20260902040800 | 73 | 44 | 0.0 | 0.0 | 0.00 | 0.03 | 0.00 | 80 | 1015.6 |
| 20260902040042 | 73 | 44 | 0.0 | 0.0 | 0.00 | 0.03 | 0.00 | 80 | 1015.4 |
| 20260902035541 | 73 | 44 | 0.0 | 0.0 | 0.00 | 0.03 | 0.03 | 80 | 1015.6 |
| 20260902035042 | 73 | 44 | 0.0 | 0.0 | 0.00 | 0.03 | 0.03 | 80 | 1015.6 |
| 20260902034540 | 73 | 44 | 0.0 | 0.0 | 0.00 | 0.03 | 0.03 | 80 | 1015.6 |